Location: Vancouver
(49.2500°N, 123.1330°W)
Time: 20:30:05
(UTC-08:00)

Iridium 21 - Visible Passes

Search period start: 24 February 2017 00:00
Search period end: 06 March 2017 00:00
Orbit: 776 x 779 km, 86.4° (Epoch: 24 February)

Date Brightness Start Highest point End Pass type
(mag) Time Alt. Az. Time Alt. Az. Time Alt. Az.
24 Feb 6.0 19:52:50 10° N 19:58:01 62° W 20:03:08 10° SSW visible
25 Feb 5.4 19:19:15 10° N 19:24:30 78° E 19:29:43 10° S visible
25 Feb 8.3 21:01:26 10° NW 21:04:33 16° WNW 21:07:40 10° WSW visible
26 Feb 5.8 18:45:50 10° N 18:50:53 46° E 18:55:52 10° SSE visible
26 Feb 7.6 20:27:02 10° NNW 20:31:21 27° W 20:35:39 10° SW visible
27 Feb 8.7 06:10:08 10° E 06:12:14 12° ENE 06:14:21 10° NE visible
27 Feb 6.7 19:53:04 10° NNW 19:58:03 45° W 20:02:59 10° SSW visible
28 Feb 5.7 19:19:23 10° N 19:24:36 77° W 19:29:49 10° S visible
28 Feb 8.7 21:02:38 10° NW 21:04:23 12° WNW 21:06:09 10° W visible
01 Mar 5.5 18:45:51 10° N 18:51:03 63° E 18:56:14 10° SSE visible
01 Mar 8.1 20:27:35 10° NNW 20:31:16 20° WNW 20:34:58 10° WSW visible
02 Mar 8.5 06:08:46 10° ESE 06:12:05 17° ENE 06:15:24 10° NE visible
02 Mar 7.3 19:53:24 10° NNW 19:58:02 33° W 20:02:38 10° SW visible
03 Mar 6.3 19:19:33 10° NNW 19:24:40 56° W 19:29:45 10° SSW visible
04 Mar 5.5 18:45:56 10° N 18:51:12 87° E 18:56:25 10° S visible
04 Mar 8.6 20:28:23 10° NW 20:31:08 15° WNW 20:33:54 10° WSW visible
05 Mar 8.3 06:07:56 10° SE 06:11:59 23° E 06:16:03 10° NNE visible
05 Mar 8.0 19:53:50 10° NNW 19:57:58 24° W 20:02:06 10° SW visible
